When you browse on this site, cookies collect data to enhance your experience and personalize the content and advertising you see.
Visit our Privacy Policy to learn more. By continuing to use the site, you agree to this use of cookies and data.
  • In Hungary
  • List of Countries
  • For 7 days
  • Water Temperature
  • Satellite Maps
  • Weather Map
  • News
  • Weather Widgets
  • user-avatar
    Login

    Hourly Weather Mount Prospect

    Today, 21 July, Sunday

    Time Temperature Precipitation Wind Pressure Humidity
    00:00 +25°C° 0 mm 4 mps 741 mmHg 84%
    01:00 +25°C° 1.4 mm 3 mps 741 mmHg 84%
    02:00 +25°C° 1.4 mm 3 mps 741 mmHg 84%
    03:00 +24°C° 1.4 mm 2 mps 741 mmHg 84%
    04:00 +24°C° 0.5 mm 3 mps 741 mmHg 84%
    05:00 +24°C° 0.5 mm 3 mps 741 mmHg 84%
    06:00 +23°C° 0.5 mm 4 mps 742 mmHg 85%
    07:00 +25°C° 0.3 mm 4 mps 742 mmHg 81%
    08:00 +25°C° 0.3 mm 4 mps 742 mmHg 77%
    09:00 +26°C° 0.3 mm 4 mps 742 mmHg 73%
    10:00 +27°C° 0 mm 4 mps 742 mmHg 69%
    11:00 +27°C° 0 mm 5 mps 742 mmHg 64%
    12:00 +28°C° 0 mm 5 mps 743 mmHg 60%
    13:00 +28°C° 0 mm 5 mps 743 mmHg 59%
    14:00 +28°C° 0 mm 5 mps 742 mmHg 57%
    15:00 +28°C° 0 mm 5 mps 742 mmHg 56%
    16:00 +27°C° 0 mm 5 mps 742 mmHg 56%
    17:00 +27°C° 0 mm 5 mps 742 mmHg 56%
    18:00 +26°C° 0 mm 5 mps 742 mmHg 57%
    19:00 +25°C° 0 mm 5 mps 743 mmHg 58%
    20:00 +23°C° 0 mm 4 mps 743 mmHg 60%
    21:00 +22°C° 0 mm 4 mps 743 mmHg 62%
    22:00 +22°C° 0 mm 4 mps 743 mmHg 63%
    23:00 +22°C° 0 mm 4 mps 743 mmHg 65%

    Tomorrow, 22 July, Monday

    Time Temperature Precipitation Wind Pressure Humidity
    00:00 +22°C° 0 mm 4 mps 743 mmHg 66%
    01:00 +21°C° 0 mm 4 mps 743 mmHg 65%
    02:00 +21°C° 0 mm 4 mps 744 mmHg 63%
    03:00 +21°C° 0 mm 4 mps 744 mmHg 62%
    04:00 +21°C° 0 mm 5 mps 744 mmHg 60%
    05:00 +21°C° 0 mm 5 mps 744 mmHg 59%
    06:00 +21°C° 0 mm 5 mps 744 mmHg 57%
    07:00 +21°C° 0 mm 5 mps 744 mmHg 54%
    08:00 +22°C° 0 mm 5 mps 745 mmHg 50%
    09:00 +23°C° 0 mm 5 mps 745 mmHg 47%
    10:00 +23°C° 0 mm 6 mps 745 mmHg 44%
    11:00 +24°C° 0 mm 6 mps 746 mmHg 42%
    12:00 +26°C° 0 mm 6 mps 746 mmHg 39%
    13:00 +26°C° 0 mm 6 mps 746 mmHg 39%
    14:00 +26°C° 0 mm 6 mps 745 mmHg 39%
    15:00 +26°C° 0 mm 6 mps 745 mmHg 40%
    16:00 +24°C° 0 mm 6 mps 745 mmHg 44%
    17:00 +25°C° 0 mm 5 mps 745 mmHg 48%
    18:00 +23°C° 0 mm 5 mps 745 mmHg 52%
    19:00 +23°C° 0 mm 4 mps 746 mmHg 54%
    20:00 +22°C° 0 mm 3 mps 746 mmHg 57%
    21:00 +21°C° 0 mm 3 mps 746 mmHg 59%
    22:00 +21°C° 0 mm 2 mps 746 mmHg 61%
    23:00 +20°C° 0 mm 2 mps 746 mmHg 63%

    Day after tomorrow, 23 July, Tuesday

    Time Temperature Precipitation Wind Pressure Humidity
    00:00 +20°C° 0 mm 2 mps 746 mmHg 65%
    01:00 +19°C° 0 mm 2 mps 746 mmHg 68%
    02:00 +19°C° 0 mm 3 mps 746 mmHg 70%
    03:00 +18°C° 0 mm 3 mps 746 mmHg 73%
    04:00 +19°C° 0 mm 3 mps 746 mmHg 71%
    05:00 +19°C° 0 mm 3 mps 746 mmHg 69%
    06:00 +19°C° 0 mm 3 mps 747 mmHg 67%
    07:00 +21°C° 0 mm 4 mps 747 mmHg 63%
    08:00 +23°C° 0 mm 4 mps 747 mmHg 59%
    09:00 +25°C° 0 mm 4 mps 747 mmHg 55%
    10:00 +26°C° 0.1 mm 4 mps 747 mmHg 53%
    11:00 +27°C° 0.1 mm 4 mps 747 mmHg 51%
    12:00 +27°C° 0.1 mm 5 mps 747 mmHg 49%
    13:00 +28°C° 0 mm 4 mps 746 mmHg 49%
    14:00 +28°C° 0 mm 4 mps 746 mmHg 49%
    15:00 +28°C° 0 mm 4 mps 746 mmHg 49%
    16:00 +27°C° 0 mm 4 mps 746 mmHg 52%
    17:00 +27°C° 0 mm 3 mps 746 mmHg 56%
    18:00 +26°C° 0 mm 3 mps 746 mmHg 60%
    19:00 +25°C° 0 mm 3 mps 746 mmHg 63%
    20:00 +24°C° 0 mm 2 mps 746 mmHg 65%
    21:00 +23°C° 0 mm 2 mps 746 mmHg 68%
    22:00 +23°C° 0 mm 2 mps 746 mmHg 70%
    23:00 +21°C° 0 mm 2 mps 746 mmHg 72%

    24 July, Wednesday

    Time Temperature Precipitation Wind Pressure Humidity
    00:00 +21°C° 0 mm 2 mps 746 mmHg 74%
    01:00 +21°C° 0 mm 2 mps 746 mmHg 76%
    02:00 +20°C° 0 mm 2 mps 746 mmHg 77%
    03:00 +20°C° 0 mm 2 mps 746 mmHg 79%
    04:00 +20°C° 0 mm 2 mps 746 mmHg 79%
    05:00 +20°C° 0 mm 2 mps 747 mmHg 79%
    06:00 +20°C° 0 mm 2 mps 747 mmHg 79%
    07:00 +23°C° 0 mm 2 mps 747 mmHg 71%
    08:00 +25°C° 0 mm 2 mps 747 mmHg 62%
    09:00 +27°C° 0 mm 1 mps 748 mmHg 54%
    10:00 +28°C° 0.1 mm 2 mps 747 mmHg 51%
    11:00 +29°C° 0.1 mm 2 mps 747 mmHg 49%
    12:00 +30°C° 0.1 mm 2 mps 747 mmHg 46%
    13:00 +30°C° 0.1 mm 2 mps 747 mmHg 47%
    14:00 +30°C° 0.1 mm 3 mps 746 mmHg 48%
    15:00 +30°C° 0.1 mm 3 mps 746 mmHg 48%
    16:00 +29°C° 0.1 mm 3 mps 746 mmHg 52%
    17:00 +28°C° 0.1 mm 2 mps 746 mmHg 56%
    18:00 +27°C° 0.1 mm 2 mps 746 mmHg 59%
    19:00 +26°C° 0 mm 2 mps 746 mmHg 61%
    20:00 +26°C° 0 mm 2 mps 746 mmHg 64%
    21:00 +25°C° 0 mm 1 mps 746 mmHg 66%
    22:00 +24°C° 0 mm 1 mps 746 mmHg 68%
    23:00 +24°C° 0 mm 1 mps 746 mmHg 70%

    25 July, Thursday

    Time Temperature Precipitation Wind Pressure Humidity
    00:00 +23°C° 0 mm 1 mps 746 mmHg 72%
    01:00 +23°C° 0 mm 1 mps 746 mmHg 73%
    02:00 +22°C° 0 mm 1 mps 746 mmHg 74%
    03:00 +22°C° 0 mm 1 mps 746 mmHg 75%
    04:00 +22°C° 0 mm 1 mps 746 mmHg 74%
    05:00 +22°C° 0 mm 1 mps 746 mmHg 74%
    06:00 +23°C° 0 mm 1 mps 747 mmHg 73%
    07:00 +24°C° 0 mm 1 mps 747 mmHg 67%
    08:00 +26°C° 0 mm 2 mps 747 mmHg 62%
    09:00 +27°C° 0 mm 2 mps 747 mmHg 57%
    10:00 +28°C° 0 mm 2 mps 747 mmHg 54%
    11:00 +29°C° 0 mm 3 mps 747 mmHg 51%
    12:00 +30°C° 0 mm 3 mps 747 mmHg 49%
    13:00 +30°C° 0 mm 3 mps 747 mmHg 49%
    14:00 +30°C° 0 mm 3 mps 746 mmHg 50%
    15:00 +30°C° 0 mm 4 mps 746 mmHg 50%
    16:00 +29°C° 0 mm 3 mps 746 mmHg 54%
    17:00 +29°C° 0 mm 3 mps 746 mmHg 58%
    18:00 +28°C° 0 mm 3 mps 746 mmHg 63%
    19:00 +27°C° 0 mm 3 mps 746 mmHg 66%
    20:00 +26°C° 0 mm 3 mps 746 mmHg 69%
    21:00 +25°C° 0 mm 3 mps 747 mmHg 71%
    22:00 +25°C° 0 mm 3 mps 746 mmHg 73%
    23:00 +25°C° 0 mm 3 mps 746 mmHg 75%

    26 July, Friday

    Time Temperature Precipitation Wind Pressure Humidity
    00:00 +24°C° 0 mm 3 mps 746 mmHg 76%
    01:00 +24°C° 0 mm 3 mps 746 mmHg 77%
    02:00 +24°C° 0 mm 3 mps 746 mmHg 78%
    03:00 +22°C° 0 mm 3 mps 747 mmHg 78%
    04:00 +22°C° 0 mm 3 mps 747 mmHg 78%
    05:00 +22°C° 0 mm 3 mps 747 mmHg 78%
    06:00 +22°C° 0 mm 4 mps 747 mmHg 77%
    07:00 +23°C° 0 mm 4 mps 747 mmHg 73%
    08:00 +26°C° 0 mm 4 mps 747 mmHg 68%
    09:00 +27°C° 0 mm 4 mps 748 mmHg 63%
    10:00 +28°C° 0 mm 5 mps 748 mmHg 59%
    11:00 +29°C° 0 mm 5 mps 747 mmHg 55%
    12:00 +30°C° 0 mm 5 mps 747 mmHg 50%
    13:00 +30°C° 0 mm 5 mps 747 mmHg 51%
    14:00 +32°C° 0 mm 5 mps 747 mmHg 52%
    15:00 +32°C° 0 mm 6 mps 746 mmHg 53%
    16:00 +30°C° 0 mm 5 mps 746 mmHg 57%
    17:00 +29°C° 0 mm 5 mps 746 mmHg 60%
    18:00 +28°C° 0 mm 5 mps 745 mmHg 64%
    19:00 +28°C° 0 mm 5 mps 746 mmHg 68%
    20:00 +27°C° 0 mm 5 mps 746 mmHg 71%
    21:00 +26°C° 0 mm 5 mps 746 mmHg 75%
    22:00 +25°C° 0.1 mm 5 mps 746 mmHg 76%
    23:00 +25°C° 0.1 mm 5 mps 746 mmHg 77%
    Show more